Overview Statistics Trail Chart Weather Telemetry Raw packets
 

This is the latest recevied weather packets stored in our database for station/object SP3VSS-13. If no packets are shown the sender has not sent any weather packets the latest 10 day(s).

<< 1 2 3 4 5 6 >>
Time Temp. Humidity Pressure Rain* Wind** Luminosity Snow
1788566562 16.67° C 88% 996.4 hPa - - - -
1788565675 16.67° C 88% 996.4 hPa - - - -
1788564761 16.67° C 89% 996.4 hPa - - - -
1788563883 16.67° C 89% 996 hPa - - - -
1788562959 16.67° C 89% 995.7 hPa - - - -
1788562058 16.67° C 88% 995.5 hPa - - - -
1788561157 16.67° C 88% 995.5 hPa - - - -
1788560264 16.67° C 88% 995.3 hPa - - - -
1788559355 17.22° C 87% 995.1 hPa - - - -
1788558451 17.22° C 87% 994.9 hPa - - - -
1788557550 17.22° C 85% 994.4 hPa - - - -
1788556648 17.22° C 86% 994.4 hPa - - - -
1788555747 18.33° C 89% 994.3 hPa - - - -
1788554847 18.33° C 89% 993.8 hPa - - - -
1788553946 18.33° C 89% 993.7 hPa - - - -
1788553062 18.33° C 89% 994.3 hPa - - - -
1788552143 18.89° C 93% 994.1 hPa - - - -
1788551242 18.89° C 93% 994 hPa - - - -
1788550341 18.89° C 93% 993.7 hPa - - - -
1788549441 24.44° C 73% 994.1 hPa - - - -
1788548540 24.44° C 73% 994 hPa - - - -
1788547638 24.44° C 73% 994.2 hPa - - - -
1788546737 24.44° C 73% 993.6 hPa - - - -
1788545836 24.44° C 73% 993.3 hPa - - - -
1788544936 24.44° C 73% 992.9 hPa - - - -

* Rain since midnight (hover to see other rain measurements)
** Current wind speed in m/s (hover to see current wind gust speed)